EW2847 Weather Reports


Display with metric or nautical units.
time (UTC)temp
F
wind
direction
speed
MPH
gust
MPH
rain 1hr
in
rain 24hr
in
rain mn
in
humidity
%
barometer
mb
20260505164514 51 355 2.0 8.0 0.00 0.25 0.11 54 993.9
20260505163014 53 355 5.0 13.0 0.00 0.25 0.11 53 994.0
20260505161510 53 355 4.0 11.0 0.00 0.25 0.11 54 993.8
20260505153006 49 355 1.0 6.0 0.00 0.25 0.11 69 993.9
20260505151503 50 355 3.0 11.0 0.00 0.25 0.11 67 993.9
20260505124548 44 355 1.0 11.0 0.00 0.25 0.11 92 993.5
20260505123043 44 221 0.0 4.0 0.00 0.25 0.11 93 993.5
20260505121544 44 221 1.0 4.0 0.00 0.25 0.11 94 993.5
20260505120049 44 217 1.0 6.0 0.00 0.25 0.11 95 993.4
20260505114545 43 254 1.0 4.0 0.00 0.25 0.11 95 993.4
20260505113041 43 192 3.0 6.0 0.00 0.25 0.11 95 993.3
20260505111540 43 192 1.0 4.0 0.00 0.25 0.11 94 993.4
20260505101542 43 190 1.0 5.0 0.00 0.25 0.11 94 993.1
20260505100037 43 329 1.0 5.0 0.00 0.25 0.11 94 993.0
20260505094534 43 192 1.0 4.0 0.00 0.25 0.11 94 993.0
20260505093034 43 190 2.0 6.0 0.00 0.25 0.11 94 992.9
20260505091537 43 197 2.0 5.0 0.00 0.25 0.11 94 993.0
20260505090032 43 219 2.0 5.0 0.00 0.25 0.11 94 992.9
20260505084540 43 178 4.0 7.0 0.00 0.25 0.11 93 992.7
20260505083029 43 178 3.0 7.0 0.00 0.25 0.11 93 992.6
20260505081528 43 176 2.0 5.0 0.00 0.25 0.11 93 992.7
20260505080125 43 180 2.0 6.0 0.00 0.25 0.11 92 992.6
20260505074525 44 178 4.0 8.0 0.00 0.25 0.11 92 992.7
20260505073033 44 176 5.0 10.0 0.00 0.25 0.11 92 992.9
20260505071520 44 181 5.0 9.0 0.00 0.25 0.11 91 992.8
20260505070029 45 175 7.0 11.0 0.01 0.25 0.11 91 992.4
20260505064514 45 180 4.0 9.0 0.01 0.25 0.11 90 992.9
20260505063012 45 179 5.0 9.0 0.04 0.25 0.11 91 993.2
20260505061512 46 183 4.0 9.0 0.04 0.25 0.11 92 993.3
20260505060009 46 182 5.0 11.0 0.05 0.24 0.10 93 993.2
20260505054505 46 180 4.0 10.0 0.07 0.24 0.10 94 993.5
20260505053005 46 186 4.0 10.0 0.05 0.21 0.07 93 993.8
20260505051503 46 185 5.0 11.0 0.06 0.21 0.07 93 993.6
20260505041600 46 186 5.0 9.0 0.06 0.15 0.01 93 993.7
20260505040055 46 153 4.0 8.0 0.06 0.14 0.00 93 993.9
20260505034552 47 178 1.0 4.0 0.07 0.13 0.13 92 994.3
20260505033052 47 167 4.0 7.0 0.07 0.11 0.11 91 994.3
20260505031602 48 178 4.0 9.0 0.05 0.09 0.09 89 994.4
20260505030050 48 187 4.0 12.0 0.05 0.08 0.08 88 994.9
20260505024557 48 184 6.0 15.0 0.04 0.06 0.06 87 995.1
20260505023048 49 162 11.0 26.0 0.04 0.04 0.04 85 994.9
20260505021551 48 155 5.0 11.0 0.04 0.04 0.04 82 995.0
20260505020046 50 158 5.0 9.0 0.03 0.03 0.03 78 995.3
20260505014602 51 190 3.0 9.0 0.02 0.02 0.02 72 995.6
20260505013046 53 188 5.0 10.0 0.00 0.00 0.00 58 995.4
20260505011554 53 181 7.0 14.0 0.00 0.00 0.00 56 994.5
20260505010042 53 163 6.0 10.0 0.00 0.00 0.00 54 994.0
20260505004543 53 159 6.0 12.0 0.00 0.00 0.00 53 994.1
20260505003040 53 153 9.0 19.0 0.00 0.00 0.00 53 994.5
20260505001539 53 175 4.0 15.0 0.00 0.00 0.00 52 994.8
20260505000050 54 125 8.0 14.0 0.00 0.00 0.00 48 994.8
20260504234546 54 165 6.0 13.0 0.00 0.00 0.00 48 994.9
20260504233055 54 161 5.0 15.0 0.00 0.00 0.00 48 994.5
20260504231537 54 138 6.0 12.0 0.00 0.00 0.00 48 994.9
20260504230036 54 178 6.0 12.0 0.00 0.00 0.00 48 995.1
20260504224536 54 161 6.0 11.0 0.00 0.00 0.00 48 995.5
20260504223044 55 157 6.0 11.0 0.00 0.00 0.00 48 995.6
20260504221527 55 123 7.0 12.0 0.00 0.00 0.00 45 996.0
20260504220023 55 156 7.0 12.0 0.00 0.00 0.00 44 996.3
20260504214525 55 184 4.0 14.0 0.00 0.00 0.00 45 996.5
20260504213033 55 169 5.0 11.0 0.00 0.00 0.00 46 996.5
20260504211528 55 161 6.0 18.0 0.00 0.00 0.00 47 996.4
20260504210018 55 166 10.0 15.0 0.00 0.00 0.00 49 996.7
20260504204533 56 162 7.0 15.0 0.00 0.00 0.00 48 997.1
20260504203021 56 179 5.0 10.0 0.00 0.00 0.00 47 997.2
20260504201513 57 184 4.0 9.0 0.00 0.00 0.00 44 997.3
20260504200011 57 196 2.0 8.0 0.00 0.00 0.00 43 997.4
20260504194509 58 182 2.0 6.0 0.00 0.00 0.00 47 997.6
20260504193005 56 254 2.0 9.0 0.00 0.00 0.00 51 997.8
20260504191502 54 170 3.0 12.0 0.00 0.00 0.00 56 998.0
20260504190002 54 186 7.0 15.0 0.00 0.00 0.00 54 998.1
20260504184600 54 165 4.0 11.0 0.00 0.00 0.00 54 998.0
20260504183100 55 148 7.0 12.0 0.00 0.00 0.00 54 998.1
20260504181600 53 155 5.0 10.0 0.00 0.00 0.00 58 998.1
20260504180056 53 179 5.0 13.0 0.00 0.00 0.00 57 998.2
20260504174557 52 177 4.0 9.0 0.00 0.00 0.00 61 998.3
20260504173050 52 189 6.0 11.0 0.00 0.00 0.00 61 998.5
20260504171550 51 171 6.0 12.0 0.00 0.00 0.00 63 998.7